517  
ASUS44 KOHX 282210  
RWROHX  
MIDDLE TENNESSEE HOURLY WEATHER ROUNDUP  
NATIONAL WEATHER SERVICE NASHVILLE TN  
400 PM CST SUN FEB 28 2021  
 
NOTE: "FAIR" INDICATES FEW OR NO CLOUDS BELOW 12,000 FEET WITH  
NO SIGNIFICANT WEATHER AND/OR S TO VISIBILITY
.  
 
* THESE REPORTS ARE NOT UNDER NWS QUALITY CONTROL AND MAY NOT  
REPORT WEATHER SUCH AS PRECIPITATION AND FOG.
 
 
 
TNZ005>011-023>034-057-059-062>066-078-080-282300   
..NORTHERN MIDDLE TENNESSEE
 
 
 
CITY SKY/WX TMP DP RH WIND PRES REMARKS
 
CLARKSVILLE RAIN 66 65 96 SW3 29.83F FOG  
CROSSVILLE CLOUDY 66 61 84 SW10G22 29.96R  
DICKSON CLOUDY 64 63 94 W13G20 29.85F FOG  
GALLATIN CLOUDY 72 64 78 SW10G20 29.86F HAZE  
LEBANON PTSUNNY 73 64 73 S15G21 29.83F  
LIVINGSTON PTSUNNY 70 61 73 SW18G25 29.87S  
NASHVILLE CLOUDY 75 60 59 SW15G26 29.85F  
PORTLAND PTSUNNY 64 64 100 SW6 29.84F FOG  
ROCKWOOD CLOUDY 64 63 94 S12G22 29.95S  
SMYRNA CLOUDY 74 63 68 S9G21 29.87F  
SPARTA MOSUNNY 72 63 73 SW15 29.90S  
SPRINGFIELD PTSUNNY 66 66 100 SW13G20 29.83F FOG  
WEST NASHVILLE MOSUNNY 72 64 78 SW13 29.83S  

 
TNZ056-058-060-061-075>077-079-093>097-282300   
..SOUTHERN MIDDLE TENNESSEE
 
 
 
CITY SKY/WX TMP DP RH WIND PRES REMARKS
 
COLUMBIA MOSUNNY 73 66 78 SW16 29.86F  
FAYETTEVILLE PTSUNNY 72 64 78 S8 29.94F  
LAWRENCEBURG PTSUNNY 73 64 73 S6G15 29.88F  
LEWISBURG PTSUNNY 73 64 73 S14 29.88F  
MCMINNVILLE MOSUNNY 70 63 78 SW8G15 29.91F  
MURFREESBORO PTSUNNY 73 63 68 S13G22 29.87F  
PULASKI PTSUNNY 75 64 69 SW10G18 29.89F  
SHELBYVILLE MOSUNNY 72 64 78 SW14 29.90S  
TULLAHOMA CLOUDY 68 64 88 S7 29.91F  
WINCHESTER PTSUNNY 73 61 64 SW10 29.92F  

 
 
   
..KEY TO REMARKS
 
 
VSB - VISIBILITY IN MILES  
WCI - WIND CHILL INDEX  
HX - HEAT INDEX  
 
 
 
CLICK HERE TO GO TO PREVIOUS BULLETINS.

The Nexlab TN Page Main Text Page